Overview Statistics Trail Chart Weather Telemetry Raw packets
 

This is the latest recevied weather packets stored in our database for station/object KO4ZGL-13. If no packets are shown the sender has not sent any weather packets the latest 10 day(s).

<< 65 66 67 68 69 70 71 >>
Time Temp. Humidity Pressure Rain* Wind** Luminosity Snow
1788185137 27.22° C 99% 1020.5 hPa 0 mm - 471 W/m² -
1788184832 26.67° C 99% 1020.4 hPa 0 mm - 425 W/m² -
1788184530 26.67° C 99% 1020.4 hPa 0 mm - 436 W/m² -
1788184225 26.11° C 99% 1020.3 hPa 0 mm - 407 W/m² -
1788183921 26.11° C 99% 1020.3 hPa 0 mm - 329 W/m² -
1788183621 25.56° C 99% 1020.3 hPa 0 mm - 454 W/m² -
1788183316 25.56° C 99% 1020.3 hPa 0 mm - 574 W/m² -
1788183010 25° C 99% 1020.6 hPa 0 mm - 87 W/m² -
1788182707 25° C 99% 1020.4 hPa 0 mm - 189 W/m² -
1788182400 25° C 99% 1020.6 hPa 0 mm - 150 W/m² -
1788182100 25° C 99% 1020.5 hPa 0 mm - 183 W/m² -
1788181796 24.44° C 99% 1020.7 hPa 0 mm - 182 W/m² -
1788181491 24.44° C 99% 1020.7 hPa 0 mm - 151 W/m² -
1788181190 24.44° C 99% 1020.5 hPa 0 mm - 124 W/m² -
1788180885 24.44° C 99% 1020.4 hPa 0 mm - 120 W/m² -
1788180581 24.44° C 99% 1020.3 hPa 0 mm - 113 W/m² -
1788180277 23.89° C 99% 1020.3 hPa 0 mm - 138 W/m² -
1788179973 23.89° C 99% 1020.2 hPa 0 mm - 98 W/m² -
1788179671 23.89° C 99% 1020.2 hPa 0 mm - 112 W/m² -
1788179366 23.89° C 99% 1020.2 hPa 0 mm - 96 W/m² -
1788179062 23.89° C 99% 1020.2 hPa 0 mm - 91 W/m² -
1788178756 23.89° C 99% 1020 hPa 0 mm - 72 W/m² -
1788178452 23.33° C 99% 1020.2 hPa 0 mm - 88 W/m² -
1788178148 23.33° C 99% 1020.1 hPa 0 mm - 77 W/m² -
1788177848 23.33° C 99% 1019.8 hPa 0 mm - 68 W/m² -

* Rain latest hour (hover to see other rain measurements)
** Current wind speed in m/s (hover to see current wind gust speed)